CAPE
0 0 0 0 0 0 0 0 0 7 8 0 0 0 1 0 43 0 0 0 27 262 502 448 499 535 659 562 303 139 247 388 234 0 0 0 0 0 0 0 82 0 0 45
0 0 0 0 0 0 0 0 0 19 0 0 0 0 1 6 41 18 0 0 0 441 528 536 647 681 645 414 32 4 148 296 126 0 66 41 2 0 0 0 2 0 16 2
0 0 0 0 0 0 0 0 0 19 18 0 2 0 0 0 21 51 0 2 35 537 622 743 796 658 433 189 6 24 115 183 188 66 4 10 0 0 0 0 0 21 18 27
0 0 0 0 0 0 0 0 0 0 0 0 0 7 155 151 117 35 40 46 188 360 599 647 704 277 54 0 0 6 73 68 17 93 2 16 7 1 0 9 8 22 46 32
0 0 0 0 0 0 0 0 0 0 0 0 2 17 2 190 289 114 32 150 228 359 419 464 291 308 15 0 0 44 131 65 90 68 47 8 17 15 14 11 26 47 48 22
0 0 0 0 0 0 0 0 0 0 0 2 35 9 84 58 132 47 106 146 197 303 346 293 3 2 0 15 18 98 111 156 92 27 61 120 64 35 12 38 21 11 20 37
7 17 0 0 0 0 0 2 11 70 114 28 53 1 0 141 106 0 284 162 106 240 73 44 54 22 66 59 22 12 58 130 57 72 116 102 120 82 72 20 13 31 30 10
2 60 14 0 0 0 0 136 44 20 23 77 90 59 2 0 0 0 0 2 185 117 5 9 9 31 36 87 67 54 76 97 148 129 109 163 160 13 1 0 34 38 48 46
0 42 32 1 0 0 0 77 23 161 99 21 82 43 2 0 0 0 0 0 0 22 66 34 42 6 0 4 1 6 36 45 97 32 109 140 66 67 4 43 59 56 65 63
0 0 5 32 0 1 0 0 9 28 72 51 51 103 0 3 4 0 0 0 1 0 0 9 1 12 54 44 84 182 141 54 115 72 4 0 7 1 16 31 50 59 70 49
0 0 21 81 58 85 26 68 23 92 133 193 89 87 16 0 0 0 0 0 0 0 0 7 39 63 23 24 63 96 94 108 57 27 0 4 8 8 22 45 74 82 58 46
5 141 187 56 27 63 9 35 39 100 45 57 264 162 0 0 0 0 0 0 1 0 6 13 31 42 36 8 12 28 41 68 1 0 0 11 25 18 33 54 77 54 38 21
33 95 36 93 106 86 151 155 8 1 8 0 52 15 14 0 0 0 0 0 0 7 2 20 17 6 2 12 21 0 0 0 0 0 0 0 29 15 47 43 47 50 28 24
0 0 0 5 29 53 40 71 30 33 160 28 31 36 31 3 3 2 1 1 0 11 31 18 0 0 0 0 0 0 8 2 2 19 3 7 12 63 15 29 62 45 17 6
0 0 1 7 32 59 54 30 12 35 45 87 40 56 36 12 0 0 0 0 0 13 2 0 0 0 0 0 0 5 23 44 38 16 1 6 8 8 44 66 95 77 66 44
28 82 53 15 14 31 39 23 0 0 0 5 38 55 22 7 0 0 0 1 0 0 0 0 0 0 0 4 10 14 51 15 25 8 1 8 11 57 76 91 89 91 96 108
114 174 46 8 16 25 43 4 28 19 6 11 21 23 4 0 0 0 3 0 0 0 0 0 0 3 15 2 10 10 4 10 8 1 13 15 52 69 98 92 100 98 125 121
0 118 88 61 29 24 60 0 0 0 9 54 35 14 3 0 0 23 1 0 2 0 0 0 4 5 6 8 13 3 0 1 1 20 73 65 74 68 105 116 119 184 199 132
10 0 174 194 127 13 62 10 4 1 64 2 0 0 0 0 7 28 14 2 0 1 1 5 4 3 4 6 0 5 5 3 50 71 74 81 89 96 110 140 133 158 164 184
0 1 126 65 60 32 150 0 3 9 40 3 0 0 20 9 36 39 39 0 1 2 1 5 3 1 7 8 4 6 12 36 78 62 95 96 113 121 130 161 189 193 187 171
66 76 48 54 93 100 33 13 1 5 48 2 0 17 22 18 48 71 26 1 2 5 7 3 1 4 5 7 17 57 85 85 82 122 129 153 169 165 142 180 167 202 190 146
90 91 134 105 116 84 3 2 33 7 0 0 18 17 20 38 29 25 1 0 2 8 2 0 4 3 11 55 62 81 108 128 134 92 120 127 176 119 130 170 170 151 157 142
72 237 312 125 30 146 2 0 0 0 8 11 21 44 23 7 12 6 0 4 11 5 3 0 7 16 68 72 91 71 94 98 135 111 174 126 189 125 174 124 73 1 0 18
84 30 40 11 20 2 0 9 9 0 21 33 16 5 0 0 5 1 8 2 8 3 2 3 10 65 58 37 47 82 108 90 123 117 148 110 135 194 91 16 22 0 5 16
31 0 0 0 1 16 29 4 1 0 3 0 0 0 1 4 12 10 13 7 3 3 1 1 45 35 25 56 46 66 98 110 37 82 104 96 81 139 141 0 0 11 3 0
6 0 0 56 5 13 26 10 1 0 0 1 0 1 4 14 9 4 4 3 0 0 3 17 20 20 59 47 50 117 62 37 28 77 48 49 81 165 157 12 0 0 0 0
CIN
-0 -0 -0 -0 -0 -0 -0 -0 -0 -4 -29 -0 -0 -0 -2 -0 -123 -15 -0 -0 -2 -6 -29 -46 -33 -44 -25 -50 -76 -119 -51 -49 -50 -0 -0 -0 -0 -0 -0 -0 -15 -0 -0 -18
-0 -0 -0 -0 -0 -0 -0 -0 -0 -7 -0 -0 -0 -0 -33 -23 -84 -72 -0 -0 -0 -9 -26 -16 -6 -12 -41 -41 -153 -115 -36 -33 -38 -0 -41 -53 -14 -0 -0 -0 -1 -0 -8 -7
-0 -0 -0 -0 -0 -0 -0 -0 -0 -1 -8 -0 -67 -0 -0 -0 -41 -88 -0 -32 -37 -12 -17 -8 -3 -17 -27 -79 -16 -21 -31 -22 -20 -31 -21 -23 -0 -0 -0 -0 -0 -11 -12 -7
-0 -0 -0 -0 -0 -0 -0 -0 -0 -0 -0 -0 -0 -14 -0 -4 -36 -97 -91 -70 -51 -15 -8 -2 -15 -64 -46 -1 -0 -2 -5 -34 -1 -11 -4 -5 -2 -0 -0 -0 -1 -6 -8 -19
-0 -0 -0 -0 -0 -0 -0 -0 -0 -0 -0 -0 -25 -2 -26 -0 -28 -42 -78 -54 -29 -8 -1 -18 -14 -9 -25 -0 -0 -7 -4 -2 -6 -21 -21 -1 -2 -2 -1 -2 -4 -8 -6 -14
-0 -0 -0 -0 -0 -0 -0 -0 -0 -0 -0 -4 -24 -27 -52 -14 -35 -26 -18 -21 -25 -4 -9 -7 -40 -47 -0 -31 -5 -2 -7 -9 -12 -8 -9 -3 -4 -4 -6 -3 -4 -4 -1 -0
-3 -1 -0 -0 -0 -0 -0 -13 -1 -0 -1 -17 -21 -8 -0 -4 -3 -2 -4 -2 -2 -7 -10 -22 -6 -9 -3 -6 -68 -87 -75 -25 -46 -32 -10 -3 -3 -8 -6 -9 -1 -1 -0 -3
-0 -0 -6 -0 -0 -0 -0 -3 -0 -0 -0 -2 -59 -6 -48 -0 -0 -0 -0 -4 -1 -8 -31 -32 -34 -22 -25 -21 -37 -18 -2 -4 -6 -14 -9 -3 -3 -8 -1 -0 -0 -0 -0 -0
-0 -5 -15 -3 -0 -0 -0 -1 -7 -1 -0 -1 -7 -136 -98 -0 -0 -0 -0 -0 -0 -4 -1 -6 -16 -123 -5 -4 -85 -35 -29 -59 -21 -28 -16 -6 -5 -2 -2 -2 -5 -1 -1 -0
-0 -0 -7 -14 -0 -17 -0 -0 -3 -0 -0 -1 -1 -10 -0 -2 -0 -0 -0 -0 -3 -0 -0 -7 -14 -30 -41 -88 -22 -10 -15 -33 -11 -20 -36 -0 -8 -0 -11 -7 -2 -0 -0 -0
-0 -0 -42 -2 -1 -3 -4 -8 -18 -4 -2 -0 -0 -4 -11 -0 -0 -0 -0 -0 -0 -0 -0 -1 -0 -3 -75 -26 -14 -20 -11 -10 -17 -30 -0 -0 -0 -0 -0 -1 -0 -0 -0 -0
-10 -6 -8 -7 -14 -4 -7 -3 -7 -1 -1 -1 -2 -2 -4 -0 -0 -0 -0 -0 -1 -0 -1 -1 -1 -15 -17 -46 -21 -16 -31 -16 -1 -0 -0 -0 -0 -1 -1 -0 -0 -0 -0 -4
-51 -2 -15 -0 -18 -13 -8 -0 -3 -1 -9 -0 -1 -2 -27 -0 -0 -0 -0 -0 -0 -1 -3 -4 -14 -12 -18 -43 -52 -0 -0 -0 -0 -1 -0 -0 -0 -7 -0 -0 -1 -0 -0 -0
-0 -0 -0 -15 -0 -4 -1 -0 -2 -2 -0 -0 -0 -0 -11 -1 -19 -0 -1 -0 -0 -3 -13 -17 -5 -0 -0 -0 -0 -0 -0 -0 -1 -14 -0 -0 -0 -0 -2 -3 -3 -0 -3 -29
-0 -0 -0 -0 -1 -0 -0 -1 -1 -0 -0 -0 -2 -0 -4 -11 -4 -0 -0 -0 -0 -5 -10 -0 -0 -0 -0 -0 -0 -0 -0 -0 -0 -3 -0 -3 -0 -0 -1 -5 -1 -2 -3 -2
-0 -22 -9 -34 -0 -0 -0 -2 -0 -0 -0 -1 -0 -4 -23 -33 -0 -0 -0 -2 -0 -0 -0 -0 -0 -0 -0 -0 -0 -1 -0 -0 -0 -7 -0 -0 -17 -0 -1 -1 -1 -2 -3 -1
-1 -1 -21 -2 -3 -0 -2 -0 -3 -3 -7 -2 -0 -5 -9 -0 -0 -0 -13 -0 -0 -0 -0 -0 -0 -0 -0 -0 -0 -0 -0 -1 -0 -0 -9 -5 -0 -0 -0 -5 -3 -6 -4 -3
-0 -1 -0 -2 -0 -1 -0 -0 -0 -0 -3 -2 -2 -6 -1 -0 -0 -30 -21 -0 -0 -0 -0 -0 -0 -2 -2 -0 -0 -0 -0 -1 -0 -4 -1 -1 -0 -7 -1 -1 -2 -1 -1 -5
-12 -0 -0 -0 -0 -0 -10 -3 -9 -0 -2 -5 -1 -0 -0 -0 -1 -9 -9 -10 -0 -0 -0 -0 -0 -0 -0 -0 -0 -0 -0 -0 -0 -0 -1 -1 -0 -3 -3 -0 -3 -5 -7 -4
-0 -9 -1 -0 -0 -0 -0 -0 -13 -0 -3 -12 -0 -0 -1 -2 -0 -0 -9 -2 -0 -0 -0 -0 -0 -0 -0 -0 -0 -0 -8 -0 -1 -0 -3 -0 -2 -1 -3 -3 -2 -7 -6 -5
-0 -2 -0 -1 -0 -4 -6 -3 -4 -1 -3 -1 -0 -4 -0 -1 -2 -2 -16 -10 -0 -0 -0 -0 -0 -0 -0 -4 -3 -0 -2 -3 -0 -3 -1 -0 -2 -4 -6 -6 -14 -7 -5 -9
-0 -2 -1 -2 -1 -0 -25 -6 -3 -8 -0 -0 -0 -11 -10 -1 -0 -3 -4 -2 -2 -0 -0 -0 -0 -0 -16 -1 -0 -0 -1 -1 -4 -3 -1 -9 -3 -1 -5 -4 -7 -6 -7 -4
-1 -1 -1 -8 -6 -7 -0 -0 -0 -0 -0 -0 -0 -6 -1 -0 -0 -0 -0 -7 -0 -0 -0 -0 -0 -1 -2 -0 -0 -4 -0 -1 -5 -10 -3 -2 -1 -4 -4 -4 -2 -0 -0 -1
-1 -25 -6 -6 -1 -1 -0 -1 -44 -0 -1 -4 -7 -6 -1 -0 -0 -4 -0 -4 -0 -0 -0 -0 -2 -0 -1 -7 -4 -0 -2 -6 -2 -5 -4 -9 -11 -7 -20 -14 -4 -0 -0 -0
-1 -0 -0 -0 -0 -9 -22 -8 -3 -0 -0 -0 -0 -0 -0 -0 -0 -0 -0 -0 -0 -0 -0 -9 -0 -0 -3 -1 -0 -0 -8 -4 -6 -6 -4 -5 -5 -8 -0 -0 -0 -0 -0 -0
-2 -0 -0 -0 -61 -38 -1 -0 -0 -0 -0 -1 -0 -0 -0 -0 -0 -0 -0 -0 -0 -0 -0 -0 -5 -0 -0 -4 -9 -3 -27 -30 -11 -14 -2 -3 -14 -2 -0 -7 -0 -0 -0 -0
Wind_Speed
14 11 13 16 15 16 18 14 16 10 11 8 7 12 13 13 8 9 12 13 12 13 16 13 11 10 10 7 6 4 6 5 5 5 5 5 6 6 6 6 7 9 10 7
7 13 13 7 10 13 17 10 16 2 8 3 6 14 14 14 10 9 9 9 8 15 16 14 11 8 9 7 4 4 5 6 4 6 4 4 5 7 7 6 9 13 8 9
11 13 5 8 10 10 14 14 17 11 7 2 9 16 19 19 11 8 9 6 7 13 15 12 11 8 8 8 4 5 5 5 6 6 6 6 7 6 7 11 11 8 13 10
9 5 8 8 10 12 13 11 15 7 11 11 14 15 17 9 15 11 7 6 6 8 11 9 10 9 4 5 4 4 5 3 6 6 7 8 7 9 9 10 10 11 12 14
10 4 3 9 8 9 11 10 12 14 14 17 18 15 16 18 14 13 7 7 6 9 9 8 6 7 8 3 4 4 5 4 5 6 7 7 8 8 9 10 14 11 10 13
12 3 7 10 9 8 11 14 15 16 15 14 5 11 15 5 5 11 12 9 7 9 8 6 9 8 1 6 8 3 3 5 7 6 5 5 7 8 10 10 9 9 10 9
3 16 7 2 10 11 9 10 10 12 11 8 5 4 12 16 8 5 15 12 10 10 6 6 5 7 8 2 8 5 6 5 4 2 3 6 6 8 7 10 9 10 8 8
11 7 4 5 4 8 11 7 9 15 13 9 7 6 8 13 15 14 13 12 9 11 6 5 6 5 8 7 7 8 6 4 5 3 5 5 7 7 7 9 8 7 7 8
9 8 3 6 5 7 8 7 8 9 13 14 12 6 10 6 9 11 10 9 8 6 4 8 9 16 13 6 6 6 8 7 3 5 6 8 8 8 8 8 7 6 9 7
8 14 15 7 1 8 11 10 9 7 9 12 12 10 1 3 10 12 12 10 11 9 8 7 9 2 5 7 6 7 8 7 6 8 9 10 11 10 8 6 8 10 9 8
12 12 14 16 2 12 4 8 3 4 4 11 11 5 9 8 8 7 9 12 8 7 9 10 11 11 14 6 7 9 10 9 9 9 11 11 10 9 7 8 9 8 8 8
10 6 10 17 9 12 13 15 12 8 10 9 8 5 10 5 8 5 7 6 10 11 13 14 14 14 15 17 13 12 11 10 11 12 11 10 10 9 8 9 9 9 8 8
11 4 8 9 8 7 7 11 2 5 4 8 10 8 9 5 11 11 10 10 11 12 14 13 15 15 15 15 14 13 13 12 11 12 11 10 9 9 10 9 9 8 8 9
1 7 12 12 16 8 7 11 10 7 6 9 11 15 8 12 3 6 10 10 12 13 14 14 15 16 16 17 17 18 13 12 11 11 10 10 10 10 9 11 8 7 6 8
3 8 13 16 18 18 16 13 14 15 13 10 14 10 13 12 9 10 15 16 15 15 18 18 17 17 18 17 15 15 15 12 11 11 10 8 9 9 10 6 9 7 8 7
2 8 12 14 18 16 17 13 11 14 15 11 8 6 11 11 15 16 15 16 16 16 17 19 20 19 17 16 15 15 11 10 11 10 10 8 8 9 8 10 9 8 7 6
10 7 8 13 16 17 12 8 8 5 6 6 5 8 7 11 14 14 15 15 14 14 16 17 16 14 12 11 11 9 10 10 9 9 8 8 9 9 9 6 6 6 7 7
7 9 6 9 11 9 4 6 7 4 9 13 11 12 13 14 13 14 12 10 10 13 13 13 11 12 12 11 10 9 9 7 9 8 8 8 9 7 7 7 8 8 6 6
8 6 4 3 5 12 2 11 11 9 14 14 13 12 14 14 12 13 11 12 12 11 11 9 10 10 9 10 9 9 8 8 8 9 8 7 7 8 7 8 7 7 6 6
5 6 6 8 8 9 6 4 3 9 3 12 12 13 12 12 9 10 12 16 13 12 12 11 10 10 9 8 8 7 7 9 9 8 6 8 10 6 7 8 7 7 7 6
3 5 11 9 8 6 3 6 7 6 6 10 12 12 11 10 6 7 14 13 12 12 11 9 8 8 8 6 6 9 7 6 7 6 6 6 5 6 7 7 7 7 6 6
5 4 3 4 8 7 12 4 6 5 7 9 11 11 9 11 13 13 13 12 11 11 9 8 8 5 5 8 7 7 6 8 6 4 5 6 6 7 7 7 6 6 6 6
4 6 3 3 2 5 4 7 8 6 8 11 11 9 14 14 14 14 12 10 9 8 6 6 5 7 8 6 7 6 6 6 6 9 5 5 4 9 5 7 9 10 11 8
2 9 4 3 5 8 6 10 10 9 9 7 11 14 15 13 13 12 8 6 8 4 5 6 6 7 5 6 7 5 8 11 12 11 11 8 7 7 8 9 8 8 9 9
5 3 4 4 7 9 10 8 11 12 13 14 14 14 13 12 10 9 8 7 4 4 4 4 8 6 7 8 3 5 11 11 9 8 8 7 4 5 6 9 7 7 8 8
4 5 1 3 7 5 9 8 11 11 12 13 12 11 9 10 9 9 5 3 2 2 1 4 6 7 8 6 7 9 8 4 5 6 4 6 6 6 5 5 4 9 7 11
Wind_Direction
219 233 237 248 246 254 283 309 308 308 116 179 199 256 206 179 190 249 255 229 204 173 141 143 140 137 130 102 109 59 88 40 0 34 5 2 359 353 335 326 317 2 331 349
269 244 261 330 343 324 312 298 275 194 136 191 278 276 268 278 184 240 266 253 235 149 144 146 142 155 126 126 97 99 65 52 18 27 332 10 352 332 313 313 353 329 328 338
269 305 61 334 299 271 271 262 270 323 93 147 258 262 267 246 173 201 244 244 229 148 144 154 155 149 159 124 136 98 68 45 60 22 10 4 343 322 336 345 315 338 330 333
279 32 5 301 273 275 273 4 336 329 305 289 274 299 243 235 168 175 194 211 194 152 140 174 146 135 195 119 147 117 102 66 38 35 10 4 343 337 334 325 323 322 332 311
301 345 259 272 318 5 304 13 320 306 293 289 280 274 271 258 159 155 166 164 169 151 187 136 187 143 115 120 212 218 126 88 64 39 15 355 348 331 326 317 316 317 332 329
283 45 290 301 348 315 324 304 290 284 265 256 4 15 324 32 64 124 172 168 186 149 115 150 96 95 163 247 234 143 57 85 70 37 7 340 328 327 316 318 324 330 336 335
249 256 148 19 290 262 222 269 285 272 261 235 14 154 241 178 162 20 147 164 173 129 158 165 216 205 216 179 70 55 62 46 27 358 332 332 326 306 325 337 330 337 324 324
316 302 121 139 297 324 315 233 277 311 306 332 246 241 86 47 44 37 39 27 131 118 54 56 270 313 320 34 50 5 7 1 333 358 347 323 322 8 344 337 336 314 322 318
321 292 255 245 309 305 303 295 9 282 284 284 313 66 8 2 82 65 53 22 31 71 191 21 14 55 66 344 336 286 285 273 337 355 324 6 2 345 342 0 319 322 319 311
303 297 299 123 319 267 251 302 309 287 310 285 302 10 169 64 53 38 35 56 41 16 359 2 88 43 247 244 324 352 335 15 13 3 11 360 348 350 5 337 323 323 308 327
294 283 288 292 253 329 167 258 11 287 269 315 302 53 75 62 50 29 11 21 22 360 346 339 339 346 50 10 347 11 1 15 8 357 5 357 3 351 344 328 318 312 322 333
344 317 298 301 283 251 316 304 305 285 294 310 323 275 115 70 65 45 16 3 15 357 348 347 354 19 15 25 7 4 355 353 2 1 3 359 350 335 335 322 324 336 340 329
353 280 297 290 70 332 303 293 236 276 282 282 290 285 1 33 14 18 8 359 352 360 346 0 9 6 2 6 14 12 14 2 344 358 349 0 340 331 334 328 312 340 334 311
338 281 275 280 300 249 219 266 268 247 279 268 266 298 163 85 232 336 6 5 344 351 20 13 8 1 1 12 3 356 358 348 356 343 347 345 330 326 317 304 322 327 320 311
222 289 291 290 292 301 302 289 274 280 274 242 265 289 28 25 9 359 2 348 348 11 10 5 5 3 358 354 347 344 342 354 355 342 341 338 322 312 296 310 305 298 302 294
244 280 291 285 281 276 300 305 304 281 276 284 312 45 4 18 14 356 2 12 7 4 358 5 5 356 351 346 346 340 342 335 337 334 324 327 302 291 305 299 295 304 296 309
304 279 293 292 304 320 301 307 335 14 5 345 322 39 41 19 1 27 32 20 355 354 11 7 355 351 347 337 350 332 326 316 331 323 301 301 298 305 306 331 322 330 338 327
275 291 289 296 302 285 353 45 9 330 29 25 32 18 15 7 350 64 36 11 356 16 15 2 356 342 337 333 341 325 313 311 306 303 304 317 334 344 341 338 346 348 351 346
187 263 279 250 283 262 27 14 20 16 63 35 23 0 347 348 343 102 6 65 46 25 22 10 357 338 333 324 322 321 319 305 306 313 340 347 342 345 358 349 356 352 352 353
233 223 246 264 266 283 54 157 261 280 153 10 2 343 11 353 349 344 335 40 31 27 22 8 355 336 325 333 318 313 323 314 315 357 347 352 350 329 13 360 6 4 10 14
215 255 230 228 241 84 10 257 295 274 20 345 341 21 15 360 343 330 39 32 35 33 16 1 342 323 332 335 321 305 322 334 346 334 337 6 354 339 24 17 12 10 16 25
265 201 312 281 267 240 348 41 38 30 352 335 359 28 0 348 347 17 12 30 33 15 12 348 334 342 315 306 296 333 358 9 344 352 346 12 5 23 26 19 15 13 358 37
333 40 325 105 108 213 79 54 60 24 358 7 358 14 5 347 359 12 17 33 24 13 351 322 335 328 303 334 347 6 358 344 335 0 350 346 1 28 53 37 33 18 0 7
113 12 303 347 105 53 31 62 45 12 27 13 23 14 18 3 359 12 35 14 13 1 328 329 314 311 345 350 314 350 7 15 11 2 339 344 57 33 41 27 40 31 10 9
103 201 28 326 39 84 61 48 34 9 12 10 15 24 12 12 15 10 2 14 347 321 326 289 294 13 341 305 330 351 46 18 359 347 319 339 45 67 70 55 29 51 46 38
39 29 311 62 60 358 66 41 38 16 14 29 20 16 30 27 18 358 351 20 285 305 253 290 340 315 322 15 332 316 84 343 332 293 357 11 36 47 56 110 78 54 45 58